LNI55 WATT-WATO

Flight info

Callsign LNI55
Flight time 1h 6m
Altitude 36000
Route MOF1E MOF DCT NAFIZ NAFIZ2A
Aircraft B738/M-V/N

Departure

Time 2026-05-06 08:35
Airport El Tari Airport (WATT)

Arrival

Time 2026-05-06 09:41
Airport Komodo Airport (WATO)
Time Latitude Longitude Altitude Speed Heading
2026-05-06 08:13 -10.16940 123.66880 356 ft 0 kts 348°
2026-05-06 08:28 -10.16941 123.66880 356 ft 0 kts 350°
2026-05-06 08:28 -10.16950 123.66885 356 ft 2 kts 327°
2026-05-06 08:28 -10.16959 123.66889 356 ft 1 kts 10°
2026-05-06 08:29 -10.16973 123.66884 356 ft 2 kts 32°
2026-05-06 08:29 -10.16984 123.66874 356 ft 2 kts 50°
2026-05-06 08:29 -10.16992 123.66861 356 ft 2 kts 67°
2026-05-06 08:29 -10.16995 123.66853 356 ft 1 kts 78°
2026-05-06 08:30 -10.16996 123.66849 356 ft 0 kts 77°
2026-05-06 08:31 -10.16990 123.66878 356 ft 7 kts 79°
2026-05-06 08:31 -10.16977 123.66949 356 ft 13 kts 80°
2026-05-06 08:31 -10.16953 123.67060 356 ft 19 kts 76°
2026-05-06 08:32 -10.17029 123.67154 356 ft 23 kts 169°
2026-05-06 08:32 -10.17159 123.67128 356 ft 18 kts 257°
2026-05-06 08:32 -10.17188 123.66991 356 ft 21 kts 257°
2026-05-06 08:32 -10.17223 123.66836 356 ft 23 kts 256°
2026-05-06 08:33 -10.17261 123.66674 356 ft 23 kts 256°
2026-05-06 08:33 -10.17300 123.66516 356 ft 24 kts 255°
2026-05-06 08:33 -10.17342 123.66328 355 ft 29 kts 257°
2026-05-06 08:33 -10.17388 123.66131 355 ft 28 kts 259°
2026-05-06 08:34 -10.17403 123.66022 355 ft 6 kts 188°
2026-05-06 08:34 -10.17394 123.66107 355 ft 6 kts 76°
2026-05-06 08:34 -10.17371 123.66212 355 ft 43 kts 75°
2026-05-06 08:35 -10.17241 123.66773 356 ft 117 kts 76°
2026-05-06 08:35 -10.16998 123.67777 410 ft 170 kts 80°
2026-05-06 08:35 -10.16731 123.68986 1064 ft 181 kts 79°
2026-05-06 08:35 -10.16391 123.70179 2038 ft 177 kts 67°
2026-05-06 08:36 -10.15718 123.71156 3001 ft 173 kts 50°
2026-05-06 08:36 -10.14755 123.71936 3611 ft 191 kts 29°
2026-05-06 08:36 -10.13344 123.72117 4080 ft 224 kts 357°
2026-05-06 08:36 -10.11735 123.71812 4698 ft 246 kts 346°
2026-05-06 08:37 -10.10138 123.71046 5438 ft 264 kts 334°
2026-05-06 08:37 -10.08437 123.70180 5800 ft 277 kts 341°
2026-05-06 08:37 -10.06587 123.69560 5880 ft 280 kts 349°
2026-05-06 08:37 -10.04690 123.69156 5882 ft 276 kts 353°
2026-05-06 08:38 -10.02777 123.68830 5876 ft 276 kts 354°
2026-05-06 08:38 -10.00886 123.68513 5871 ft 277 kts 354°
2026-05-06 08:38 -9.98968 123.68173 5879 ft 277 kts 353°
2026-05-06 08:38 -9.97044 123.67816 5878 ft 278 kts 353°
2026-05-06 08:39 -9.95150 123.67456 5871 ft 277 kts 351°
2026-05-06 08:39 -9.93304 123.66879 5871 ft 282 kts 337°
2026-05-06 08:39 -9.91643 123.65664 6438 ft 301 kts 319°
2026-05-06 08:39 -9.90165 123.64208 7659 ft 296 kts 317°
2026-05-06 08:40 -9.88730 123.62771 8711 ft 295 kts 317°
2026-05-06 08:40 -9.87250 123.61328 9505 ft 301 kts 317°
2026-05-06 08:40 -9.85718 123.59873 9826 ft 300 kts 317°
2026-05-06 08:40 -9.84180 123.58433 9865 ft 300 kts 318°
2026-05-06 08:41 -9.82648 123.57005 9859 ft 297 kts 318°
2026-05-06 08:41 -9.81131 123.55592 9855 ft 298 kts 318°
2026-05-06 08:41 -9.79594 123.54160 9852 ft 299 kts 318°
2026-05-06 08:41 -9.78064 123.52732 9853 ft 299 kts 318°
2026-05-06 08:42 -9.76532 123.51300 9849 ft 299 kts 318°
2026-05-06 08:42 -9.75001 123.49869 9842 ft 298 kts 317°
2026-05-06 08:42 -9.73486 123.48453 9837 ft 298 kts 318°
2026-05-06 08:42 -9.71940 123.47009 9834 ft 298 kts 317°
2026-05-06 08:43 -9.70420 123.45589 9838 ft 298 kts 318°
2026-05-06 08:43 -9.68903 123.44173 9841 ft 297 kts 317°
2026-05-06 08:43 -9.67370 123.42743 9838 ft 297 kts 318°
2026-05-06 08:43 -9.65856 123.41328 9837 ft 297 kts 318°
2026-05-06 08:44 -9.64323 123.39899 9836 ft 298 kts 318°
2026-05-06 08:44 -9.62786 123.38469 9835 ft 298 kts 319°
2026-05-06 08:44 -9.61161 123.37038 10014 ft 323 kts 321°
2026-05-06 08:44 -9.59404 123.35558 10584 ft 338 kts 321°
2026-05-06 08:45 -9.57550 123.34010 11333 ft 346 kts 321°
2026-05-06 08:45 -9.55693 123.32454 12162 ft 350 kts 320°
2026-05-06 08:45 -9.53821 123.30876 12949 ft 355 kts 319°
2026-05-06 08:45 -9.51907 123.29256 13713 ft 360 kts 319°
2026-05-06 08:46 -9.50003 123.27640 14512 ft 363 kts 319°
2026-05-06 08:46 -9.48060 123.25993 15285 ft 366 kts 319°
2026-05-06 08:46 -9.46085 123.24317 15990 ft 371 kts 319°
2026-05-06 08:46 -9.44114 123.22645 16713 ft 374 kts 319°
2026-05-06 08:47 -9.42113 123.20948 17452 ft 376 kts 319°
2026-05-06 08:47 -9.40121 123.19258 18125 ft 379 kts 319°
2026-05-06 08:47 -9.38075 123.17524 18810 ft 382 kts 319°
2026-05-06 08:47 -9.36027 123.15789 19435 ft 386 kts 319°
2026-05-06 08:48 -9.33971 123.14048 20030 ft 390 kts 319°
2026-05-06 08:48 -9.31890 123.12287 20650 ft 392 kts 319°
2026-05-06 08:48 -9.29783 123.10504 21192 ft 397 kts 319°
2026-05-06 08:48 -9.27661 123.08709 21790 ft 399 kts 319°
2026-05-06 08:49 -9.25546 123.06919 22322 ft 402 kts 319°
2026-05-06 08:49 -9.23375 123.05083 22845 ft 407 kts 319°
2026-05-06 08:49 -9.21185 123.03230 23369 ft 410 kts 319°
2026-05-06 08:49 -9.18999 123.01380 23894 ft 414 kts 319°
2026-05-06 08:50 -9.16781 122.99504 24408 ft 417 kts 318°
2026-05-06 08:50 -9.14549 122.97615 24894 ft 421 kts 318°
2026-05-06 08:50 -9.12299 122.95713 25384 ft 424 kts 318°
2026-05-06 08:50 -9.10026 122.93791 25865 ft 428 kts 318°
2026-05-06 08:51 -9.07733 122.91853 26323 ft 431 kts 318°
2026-05-06 08:51 -9.05420 122.89899 26803 ft 434 kts 317°
2026-05-06 08:51 -9.03090 122.87931 27258 ft 437 kts 317°
2026-05-06 08:51 -9.00746 122.85950 27710 ft 440 kts 317°
2026-05-06 08:52 -8.98386 122.83955 28123 ft 444 kts 317°
2026-05-06 08:52 -8.96003 122.81941 28535 ft 448 kts 317°
2026-05-06 08:52 -8.93623 122.79931 28981 ft 450 kts 317°
2026-05-06 08:52 -8.91202 122.77886 29379 ft 454 kts 317°
2026-05-06 08:53 -8.88763 122.75827 29943 ft 454 kts 318°
2026-05-06 08:53 -8.86366 122.73806 30674 ft 449 kts 318°
2026-05-06 08:53 -8.83954 122.71773 31273 ft 447 kts 318°
2026-05-06 08:53 -8.81573 122.69765 31825 ft 446 kts 318°
2026-05-06 08:54 -8.79211 122.67771 32350 ft 445 kts 318°
2026-05-06 08:54 -8.76841 122.65765 32930 ft 443 kts 317°
2026-05-06 08:54 -8.74616 122.63647 33561 ft 439 kts 311°
2026-05-06 08:54 -8.72653 122.61324 34180 ft 434 kts 305°
2026-05-06 08:55 -8.70966 122.58810 34735 ft 431 kts 299°
2026-05-06 08:55 -8.69571 122.56119 35245 ft 429 kts 292°
2026-05-06 08:55 -8.68497 122.53308 35693 ft 428 kts 286°
2026-05-06 08:55 -8.67756 122.50405 35846 ft 431 kts 280°
2026-05-06 08:56 -8.67287 122.47410 35843 ft 430 kts 276°
2026-05-06 08:56 -8.66619 122.41454 35842 ft 426 kts 276°
2026-05-06 08:57 -8.65877 122.35480 35838 ft 426 kts 277°
2026-05-06 08:57 -8.64994 122.29540 35833 ft 427 kts 278°
2026-05-06 08:58 -8.64106 122.23624 35832 ft 426 kts 275°
2026-05-06 08:58 -8.63798 122.17654 35838 ft 425 kts 270°
2026-05-06 08:59 -8.63744 122.11706 35849 ft 425 kts 270°
2026-05-06 08:59 -8.63699 122.05692 35859 ft 426 kts 270°
2026-05-06 09:00 -8.63621 121.99696 35871 ft 426 kts 270°
2026-05-06 09:00 -8.63519 121.93719 35878 ft 426 kts 271°
2026-05-06 09:01 -8.63407 121.87721 35889 ft 426 kts 271°
2026-05-06 09:01 -8.63290 121.81744 35899 ft 426 kts 271°
2026-05-06 09:02 -8.63171 121.75760 35910 ft 426 kts 271°
2026-05-06 09:02 -8.63052 121.69795 35907 ft 425 kts 270°
2026-05-06 09:03 -8.62933 121.63847 35901 ft 424 kts 270°
2026-05-06 09:03 -8.62811 121.57885 35896 ft 425 kts 270°
2026-05-06 09:04 -8.62688 121.51931 35889 ft 425 kts 270°
2026-05-06 09:04 -8.62565 121.46005 35867 ft 403 kts 270°
2026-05-06 09:04 -8.62506 121.43223 35765 ft 391 kts 270°
2026-05-06 09:05 -8.62449 121.40472 35205 ft 395 kts 270°
2026-05-06 09:05 -8.62392 121.37746 34718 ft 383 kts 270°
2026-05-06 09:05 -8.62335 121.35087 34306 ft 373 kts 270°
2026-05-06 09:05 -8.62280 121.32478 33900 ft 368 kts 270°
2026-05-06 09:06 -8.62225 121.29895 33344 ft 367 kts 270°
2026-05-06 09:06 -8.62171 121.27345 32855 ft 364 kts 270°
2026-05-06 09:06 -8.62118 121.24796 32354 ft 362 kts 270°
2026-05-06 09:06 -8.62064 121.22283 31924 ft 359 kts 270°
2026-05-06 09:07 -8.62010 121.19775 31503 ft 355 kts 270°
2026-05-06 09:07 -8.61956 121.17302 31064 ft 353 kts 270°
2026-05-06 09:07 -8.61903 121.14854 30644 ft 350 kts 270°
2026-05-06 09:07 -8.61850 121.12386 30183 ft 348 kts 270°
2026-05-06 09:08 -8.61797 121.09971 29794 ft 344 kts 270°
2026-05-06 09:08 -8.61746 121.07579 29346 ft 342 kts 269°
2026-05-06 09:08 -8.61695 121.05211 28934 ft 338 kts 269°
2026-05-06 09:08 -8.61643 121.02836 28508 ft 336 kts 269°
2026-05-06 09:09 -8.61591 121.00478 28117 ft 333 kts 269°
2026-05-06 09:09 -8.61540 120.98159 27657 ft 332 kts 270°
2026-05-06 09:09 -8.61489 120.95833 27252 ft 329 kts 270°
2026-05-06 09:09 -8.61438 120.93556 26821 ft 328 kts 270°
2026-05-06 09:10 -8.61387 120.91242 26371 ft 327 kts 270°
2026-05-06 09:10 -8.61336 120.88944 25927 ft 327 kts 270°
2026-05-06 09:10 -8.61286 120.86663 25488 ft 326 kts 270°
2026-05-06 09:10 -8.61236 120.84383 25043 ft 325 kts 271°
2026-05-06 09:11 -8.61186 120.82104 24673 ft 322 kts 271°
2026-05-06 09:11 -8.61138 120.79878 24271 ft 321 kts 271°
2026-05-06 09:11 -8.61088 120.77631 23852 ft 319 kts 271°
2026-05-06 09:11 -8.61038 120.75387 23450 ft 318 kts 271°
2026-05-06 09:12 -8.60983 120.73152 23047 ft 317 kts 273°
2026-05-06 09:12 -8.60776 120.70975 22631 ft 316 kts 282°
2026-05-06 09:12 -8.60111 120.68870 22242 ft 313 kts 297°
2026-05-06 09:12 -8.59039 120.66957 21889 ft 310 kts 302°
2026-05-06 09:13 -8.57876 120.65147 21526 ft 308 kts 303°
2026-05-06 09:13 -8.56683 120.63342 21153 ft 307 kts 304°
2026-05-06 09:13 -8.55504 120.61557 20828 ft 305 kts 303°
2026-05-06 09:13 -8.54336 120.59773 20444 ft 305 kts 303°
2026-05-06 09:14 -8.53187 120.58005 20129 ft 302 kts 303°
2026-05-06 09:14 -8.52036 120.56225 19783 ft 301 kts 303°
2026-05-06 09:14 -8.50899 120.54460 19437 ft 299 kts 302°
2026-05-06 09:14 -8.49775 120.52714 19103 ft 297 kts 302°
2026-05-06 09:15 -8.48651 120.50967 18744 ft 296 kts 302°
2026-05-06 09:15 -8.47533 120.49227 18390 ft 294 kts 302°
2026-05-06 09:15 -8.46418 120.47490 18029 ft 293 kts 302°
2026-05-06 09:15 -8.45311 120.45769 17678 ft 292 kts 302°
2026-05-06 09:16 -8.44216 120.44067 17336 ft 290 kts 301°
2026-05-06 09:16 -8.43126 120.42372 17001 ft 288 kts 302°
2026-05-06 09:16 -8.42033 120.40672 16657 ft 287 kts 302°
2026-05-06 09:16 -8.40979 120.38967 16359 ft 282 kts 298°
2026-05-06 09:17 -8.40122 120.37245 16255 ft 271 kts 293°
2026-05-06 09:17 -8.39383 120.35494 16025 ft 266 kts 291°
2026-05-06 09:17 -8.38695 120.33764 15689 ft 266 kts 291°
2026-05-06 09:17 -8.38004 120.32037 15372 ft 265 kts 291°
2026-05-06 09:18 -8.37311 120.30338 15065 ft 264 kts 291°
2026-05-06 09:18 -8.36608 120.28632 14731 ft 264 kts 291°
2026-05-06 09:18 -8.35908 120.26939 14435 ft 262 kts 291°
2026-05-06 09:18 -8.35202 120.25237 14107 ft 261 kts 291°
2026-05-06 09:19 -8.34504 120.23554 13794 ft 261 kts 291°
2026-05-06 09:19 -8.33805 120.21867 13492 ft 259 kts 291°
2026-05-06 09:19 -8.33111 120.20188 13173 ft 259 kts 291°
2026-05-06 09:19 -8.32420 120.18517 12863 ft 258 kts 292°
2026-05-06 09:20 -8.31732 120.16853 12553 ft 257 kts 292°
2026-05-06 09:20 -8.31046 120.15198 12248 ft 256 kts 292°
2026-05-06 09:20 -8.30363 120.13548 11947 ft 255 kts 292°
2026-05-06 09:20 -8.29682 120.11902 11626 ft 255 kts 292°
2026-05-06 09:21 -8.28992 120.10233 11316 ft 254 kts 292°
2026-05-06 09:21 -8.28316 120.08598 11018 ft 253 kts 292°
2026-05-06 09:21 -8.27640 120.06966 10740 ft 252 kts 292°
2026-05-06 09:21 -8.26960 120.05323 10427 ft 251 kts 292°
2026-05-06 09:22 -8.26380 120.03669 10116 ft 251 kts 287°
2026-05-06 09:22 -8.25900 120.01987 9817 ft 251 kts 285°
2026-05-06 09:22 -8.25448 120.00288 9527 ft 250 kts 285°
2026-05-06 09:22 -8.24993 119.98594 9229 ft 250 kts 286°
2026-05-06 09:23 -8.24532 119.96910 8949 ft 249 kts 286°
2026-05-06 09:23 -8.24063 119.95222 8667 ft 247 kts 286°
2026-05-06 09:23 -8.23599 119.93555 8358 ft 248 kts 286°
2026-05-06 09:23 -8.23119 119.91838 7736 ft 263 kts 287°
2026-05-06 09:24 -8.22459 119.90129 7501 ft 254 kts 301°
2026-05-06 09:24 -8.21323 119.88890 7483 ft 234 kts 333°
2026-05-06 09:24 -8.19839 119.88439 7463 ft 215 kts 358°
2026-05-06 09:24 -8.18341 119.88412 7481 ft 213 kts
2026-05-06 09:25 -8.16852 119.88435 7478 ft 212 kts
2026-05-06 09:25 -8.15372 119.88444 7478 ft 213 kts
2026-05-06 09:25 -8.13877 119.88456 7478 ft 213 kts
2026-05-06 09:25 -8.12454 119.88777 7474 ft 210 kts 30°
2026-05-06 09:26 -8.11337 119.89706 7478 ft 207 kts 54°
2026-05-06 09:26 -8.10612 119.90945 7479 ft 205 kts 69°
2026-05-06 09:26 -8.10305 119.92355 7476 ft 206 kts 91°
2026-05-06 09:26 -8.10607 119.93765 7478 ft 207 kts 112°
2026-05-06 09:27 -8.11347 119.95025 7335 ft 212 kts 129°
2026-05-06 09:27 -8.12539 119.95953 6840 ft 225 kts 155°
2026-05-06 09:27 -8.14095 119.96299 6316 ft 239 kts 175°
2026-05-06 09:27 -8.15782 119.96043 5824 ft 249 kts 200°
2026-05-06 09:28 -8.17185 119.95040 5455 ft 252 kts 229°
2026-05-06 09:28 -8.18011 119.93492 5155 ft 251 kts 251°
2026-05-06 09:28 -8.18448 119.91778 4824 ft 250 kts 257°
2026-05-06 09:28 -8.18906 119.90128 4632 ft 242 kts 243°
2026-05-06 09:29 -8.19967 119.88917 4619 ft 221 kts 206°
2026-05-06 09:29 -8.21377 119.88474 4619 ft 206 kts 182°
2026-05-06 09:29 -8.22798 119.88523 4622 ft 204 kts 167°
2026-05-06 09:29 -8.24151 119.88946 4620 ft 200 kts 147°
2026-05-06 09:30 -8.25182 119.89862 4622 ft 197 kts 123°
2026-05-06 09:30 -8.25839 119.91050 4625 ft 194 kts 109°
2026-05-06 09:30 -8.26107 119.92380 4624 ft 193 kts 88°
2026-05-06 09:30 -8.25852 119.93698 4624 ft 192 kts 69°
2026-05-06 09:31 -8.25216 119.94890 4621 ft 194 kts 53°
2026-05-06 09:31 -8.24193 119.95792 4621 ft 198 kts 31°
2026-05-06 09:31 -8.22897 119.96275 4622 ft 200 kts 13°
2026-05-06 09:31 -8.21501 119.96355 4624 ft 202 kts
2026-05-06 09:32 -8.20091 119.96313 4624 ft 203 kts
2026-05-06 09:32 -8.18663 119.96293 4623 ft 203 kts
2026-05-06 09:32 -8.17254 119.96287 4623 ft 203 kts
2026-05-06 09:32 -8.15816 119.96252 4621 ft 204 kts 356°
2026-05-06 09:33 -8.14465 119.95831 4619 ft 208 kts 330°
2026-05-06 09:33 -8.13408 119.94821 4623 ft 212 kts 306°
2026-05-06 09:33 -8.12742 119.93473 4623 ft 214 kts 287°
2026-05-06 09:33 -8.12604 119.91986 4623 ft 217 kts 262°
2026-05-06 09:34 -8.13061 119.90546 4624 ft 215 kts 240°
2026-05-06 09:34 -8.13959 119.89365 4622 ft 213 kts 219°
2026-05-06 09:34 -8.15224 119.88608 4622 ft 209 kts 195°
2026-05-06 09:34 -8.16653 119.88403 4625 ft 206 kts 176°
2026-05-06 09:35 -8.18096 119.88444 4583 ft 207 kts 175°
2026-05-06 09:35 -8.19540 119.88470 4311 ft 209 kts 176°
2026-05-06 09:35 -8.21013 119.88476 4035 ft 210 kts 177°
2026-05-06 09:35 -8.22478 119.88479 3816 ft 207 kts 177°
2026-05-06 09:36 -8.23914 119.88477 3576 ft 206 kts 177°
2026-05-06 09:36 -8.25346 119.88476 3349 ft 202 kts 177°
2026-05-06 09:36 -8.26725 119.88474 3118 ft 194 kts 176°
2026-05-06 09:36 -8.28029 119.88474 2983 ft 181 kts 176°
2026-05-06 09:37 -8.29276 119.88473 2856 ft 178 kts 176°
2026-05-06 09:37 -8.30531 119.88459 2737 ft 177 kts 176°
2026-05-06 09:37 -8.31769 119.88450 2607 ft 177 kts 176°
2026-05-06 09:37 -8.32998 119.88451 2461 ft 178 kts 176°
2026-05-06 09:38 -8.34231 119.88454 2300 ft 173 kts 175°
2026-05-06 09:38 -8.35430 119.88460 2177 ft 169 kts 175°
2026-05-06 09:38 -8.36561 119.88460 1985 ft 155 kts 176°
2026-05-06 09:38 -8.37631 119.88358 1883 ft 155 kts 186°
2026-05-06 09:39 -8.38691 119.88126 1854 ft 154 kts 189°
2026-05-06 09:39 -8.39742 119.87884 1822 ft 154 kts 187°
2026-05-06 09:39 -8.40804 119.87696 1812 ft 154 kts 181°
2026-05-06 09:39 -8.41874 119.87685 1841 ft 152 kts 169°
2026-05-06 09:40 -8.42942 119.87860 1740 ft 158 kts 164°
2026-05-06 09:40 -8.44008 119.88061 1462 ft 154 kts 165°
2026-05-06 09:40 -8.46074 119.88533 738 ft 150 kts 163°
2026-05-06 09:41 -8.47104 119.88710 373 ft 151 kts 166°
2026-05-06 09:41 -8.48104 119.88850 285 ft 128 kts 167°
2026-05-06 09:41 -8.48737 119.88953 263 ft 60 kts 173°
2026-05-06 09:41 -8.48997 119.88980 253 ft 11 kts 173°
2026-05-06 09:42 -8.49081 119.88991 251 ft 12 kts 172°
2026-05-06 09:42 -8.49181 119.89003 249 ft 16 kts 177°
2026-05-06 09:42 -8.49245 119.88930 250 ft 14 kts 273°
2026-05-06 09:42 -8.49185 119.88893 253 ft 9 kts 352°
2026-05-06 09:43 -8.49114 119.88884 254 ft 12 kts 353°
2026-05-06 09:43 -8.49030 119.88882 256 ft 8 kts 347°
2026-05-06 09:43 -8.49002 119.88874 257 ft 1 kts 343°
2026-05-06 09:43 -8.48994 119.88872 257 ft 0 kts 344°
2026-05-06 09:44 -8.48968 119.88864 258 ft 7 kts 346°
2026-05-06 09:44 -8.48939 119.88848 260 ft 1 kts 292°
2026-05-06 09:44 -8.48937 119.88831 260 ft 3 kts 274°
2026-05-06 09:44 -8.48940 119.88802 261 ft 0 kts 261°